This demonstration page uses our WeatherBlox Daily Observations layout. Learn more.

Left ArrowRight Arrow

Hourly Observations for April 11, 2020

Temp ( °F °C ) Dew Point ( °F °C ) Humidity (%) Winds ( mph kmh ) Pressure ( in mb ) Visibility ( mi km ) Precip ( " mm )
12:15 am 00:15 Clear 52 11 34 1.3 52 52 S 12 19 29.68 1005 10 16 N/A
12:35 am 00:35 Clear 51 10.8 35 1.6 53 53 S 9 15 29.68 1005 10 16 N/A
12:55 am 00:55 Clear 51 10.4 35 1.9 56 56 S 10 17 29.67 1005 10 16 N/A
1:15 am 01:15 Clear 49 9.6 35 1.7 58 58 SSE 7 11 29.68 1005 10 16 N/A
1:35 am 01:35 Clear 49 9.5 36 2 60 60 SSE 9 15 29.67 1005 10 16 N/A
1:55 am 01:55 Clear 49 9.5 35 1.8 59 59 SSE 9 15 29.66 1004 10 16 N/A
2:15 am 02:15 Clear 49 9.5 35 1.8 59 59 SSE 8 13 29.67 1005 10 16 N/A
2:35 am 02:35 Clear 49 9.5 35 1.8 59 59 SSE 9 15 29.66 1004 10 16 N/A
2:55 am 02:55 Clear 49 9.2 35 1.8 60 60 SSE 9 15 29.66 1004 10 16 N/A
3:15 am 03:15 Clear 48 9.1 36 2.1 62 62 S 6 9 29.66 1004 10 16 N/A
3:35 am 03:35 Clear 49 9.5 37 2.5 62 62 S 6 9 29.66 1004 10 16 N/A
3:55 am 03:55 Clear 49 9.2 37 2.5 63 63 N N/A 29.66 1004 10 16 N/A
4:15 am 04:15 Partly Cloudy 48 8.8 36 2.4 64 64 N N/A 29.66 1005 10 16 N/A
4:35 am 04:35 Partly Cloudy 48 8.8 37 2.5 65 65 S 7 11 29.65 1004 10 16 N/A
4:55 am 04:55 Clear 49 9.2 37 2.9 65 65 N N/A 29.66 1004 10 16 N/A
5:15 am 05:15 Clear 47 8.1 36 2 66 66 N 9 15 29.68 1005 10 16 N/A
5:35 am 05:35 Clear 46 7.5 36 2 68 68 NNE 10 17 29.68 1005 10 16 N/A
5:55 am 05:55 Clear 45 7.4 36 2 69 69 ENE 9 15 29.68 1005 10 16 N/A
6:15 am 06:15 Clear 44 6.5 35 1.6 71 71 ENE 5 7 29.67 1005 10 16 N/A
6:35 am 06:35 Clear 43 6.2 35 1.5 72 72 NE 7 11 29.67 1005 10 16 N/A
6:55 am 06:55 Clear 42 5.5 34 1.2 74 74 NNE 5 7 29.66 1004 10 16 N/A
7:15 am 07:15 Sunny 41 4.8 33 0.7 75 75 NW 5 7 29.69 1005 10 16 N/A
7:35 am 07:35 Sunny 40 4.2 33 0.6 78 78 E 3 6 29.68 1005 10 16 N/A
7:55 am 07:55 Sunny 41 5.2 35 1.5 77 77 NNW 5 7 29.70 1006 10 16 N/A
8:35 am 08:35 Sunny 44 6.7 36 2.1 73 73 NE 3 6 29.68 1005 10 16 N/A
8:55 am 08:55 Sunny 45 7.3 36 2 69 69 NNE 6 9 29.68 1005 10 16 N/A
9:15 am 09:15 Sunny 45 7.3 36 2.1 70 70 N N/A 29.69 1005 10 16 N/A
9:35 am 09:35 Sunny 49 9.2 36 2.4 63 63 NE 6 9 29.67 1005 10 16 N/A
9:55 am 09:55 Sunny 51 10.6 37 2.9 59 59 NNE 9 15 29.65 1004 10 16 N/A
10:15 am 10:15 Sunny 54 12.3 38 3.2 54 54 NE 9 15 29.63 1003 10 16 N/A
10:35 am 10:35 Sunny 57 13.8 38 3.1 49 49 NE 8 13 29.62 1003 10 16 N/A
10:55 am 10:55 Sunny 60 15.6 37 2.6 42 42 ENE 13 20 29.60 1003 10 16 N/A
11:15 am 11:15 Sunny 62 16.9 34 1.3 35 35 NE 17 28 29.60 1002 10 16 N/A
11:35 am 11:35 Sunny 64 17.6 35 1.6 34 34 NE 13 20 29.60 1002 10 16 N/A
11:55 am 11:55 Sunny 65 18.5 35 1.5 32 32 NE 14 22 29.59 1002 10 16 N/A
12:15 pm 12:15 Sunny 65 18.5 33 0.8 31 31 NE 17 28 29.58 1002 10 16 N/A
12:35 pm 12:35 Sunny 67 19.2 33 0.7 29 29 NE 15 24 29.56 1001 10 16 N/A
12:55 pm 12:55 Sunny 66 18.9 33 0.6 29 29 NE 15 24 29.56 1001 10 16 N/A
1:15 pm 13:15 Sunny 68 19.8 34 1 29 29 NE 16 26 29.54 1000 10 16 N/A
1:35 pm 13:35 Sunny 69 20.3 35 1.5 29 29 E 15 24 29.53 1000 10 16 N/A
1:55 pm 13:55 Sunny 68 20.2 34 1.2 28 28 ENE 15 24 29.52 1000 10 16 N/A
2:15 pm 14:15 Sunny 69 20.8 35 1.7 28 28 ENE 8 13 29.51 999 10 16 N/A
2:35 pm 14:35 Sunny 70 21 33 0.7 26 26 E 10 17 29.50 999 10 16 N/A
2:55 pm 14:55 Sunny 71 21.5 33 0.8 25 25 ENE 14 22 29.50 999 10 16 N/A
3:15 pm 15:15 Sunny 71 21.8 34 1.3 26 26 E 12 19 29.48 998 10 16 N/A
3:35 pm 15:35 Sunny 71 21.6 34 1 26 26 E 8 13 29.48 998 10 16 N/A
3:55 pm 15:55 Sunny 71 21.8 34 1.3 26 26 E 6 9 29.46 998 10 16 N/A
4:15 pm 16:15 Sunny 72 22.2 35 1.9 26 26 E 6 9 29.45 997 10 16 N/A
4:35 pm 16:35 Sunny 72 22.1 35 1.6 26 26 NE 9 15 29.45 997 10 16 N/A
4:55 pm 16:55 Sunny 72 22.2 35 1.5 26 26 NE 6 9 29.45 997 10 16 N/A
5:15 pm 17:15 Sunny 72 22.1 35 1.4 26 26 NE 8 13 29.44 997 10 16 N/A
5:35 pm 17:35 Sunny 72 22.1 36 2 27 27 NE 10 17 29.44 997 10 16 N/A
5:55 pm 17:55 Sunny 71 21.6 34 1.3 26 26 E 6 9 29.45 997 10 16 N/A
6:15 pm 18:15 Sunny 71 21.6 35 1.8 27 27 NE 7 11 29.45 997 10 16 N/A
6:35 pm 18:35 Sunny 70 21.2 35 1.9 28 28 ENE 6 9 29.45 997 10 16 N/A
6:55 pm 18:55 Sunny 70 20.9 35 1.8 28 28 ENE 12 19 29.45 997 10 16 N/A
7:15 pm 19:15 Sunny 69 20.5 35 1.8 29 29 ENE 13 20 29.45 997 10 16 N/A
7:35 pm 19:35 Sunny 67 19.7 36 2 31 31 E 12 19 29.46 998 10 16 N/A
7:55 pm 19:55 Sunny 65 18.1 36 2 34 34 ENE 12 19 29.46 998 10 16 N/A
8:15 pm 20:15 Clear 60 15.5 33 0.8 37 37 NE 22 35 29.50 999 10 16 N/A
8:35 pm 20:35 Clear 58 14.2 32 undefined 38 38 NE 20 31 29.51 999 10 16 N/A
8:55 pm 20:55 Clear 56 13.3 32 undefined 40 40 NE 18 30 29.52 1000 10 16 N/A
9:15 pm 21:15 Clear 55 12.6 32 -0.2 42 42 NE 15 24 29.54 1000 10 16 N/A
9:35 pm 21:35 Clear 53 11.9 30 -1 41 41 ENE 20 31 29.56 1001 10 16 N/A
9:55 pm 21:55 Clear 52 11.2 29 -1.6 41 41 NE 21 33 29.55 1001 10 16 N/A
10:15 pm 22:15 Clear 51 10.6 29 -1.8 42 42 NE 21 33 29.57 1001 10 16 N/A
10:35 pm 22:35 Clear 51 10.5 29 -1.6 43 43 NE 24 39 29.57 1001 10 16 N/A
10:55 pm 22:55 Clear 50 10 29 -1.5 45 45 NE 20 31 29.57 1001 10 16 N/A
11:15 pm 23:15 Clear 49 9.7 29 -1.4 46 46 NNE 21 33 29.58 1002 10 16 N/A
11:35 pm 23:35 Clear 48 8.8 31 -0.6 52 52 NE 22 35 29.59 1002 10 16 N/A
11:55 pm 23:55 Clear 47 8.2 32 -0.2 56 56 NNE 17 28 29.61 1003 10 16 N/A

Powered by AerisWeather